Location: Marcé
(47.5801°N, 0.3280°W)
Time: 18:52:53
(UTC+01:00)

Tiros 1 despin weight - Pass Details

Date: 01 December 2021
Orbit: 592 x 641 km, 48.2° (Epoch: 21 January)

Event Time Altitude Azimuth Distance (km) Brightness Sun altitude
Rises 18:55:37 0° 281° (W) 2,825 ? -16.8°
Reaches altitude 10° 18:57:53 10° 280° (W) 1,924 ? -17.2°
Maximum altitude 19:02:18 84° 193° (SSW) 602 ? -17.9°
Enters shadow 19:04:07 35° 108° (ESE) 966 ? -18.2°
